Torna al catalogo

ASTRA 1E

AttivoComunicazioniGEO
NORAD 23686·PAYLOAD·🇱🇺 Luxembourg

Lanciato Oct 19, 1995 da Guiana Space Centre

Loading…

TLE

AggiornatoSource: Space-Track

Epoca: Sep 14, 2026, 12:19 UTC

1 23686U 95055A   26257.51334198  .00000017  00000-0  00000-0 0  9993
2 23686  11.6917  39.6306 0003869  26.3614 160.3945  0.98790987112657

Traccia ASTRA 1E in tempo reale con AllMySat

Download on the App Store